Regional Weather Roundup
Issued by NWS Little Rock, AR

Home | Current Version | Previous Version | Graphics & Text | Print | Product List | Glossary On
Versions: 1 2 3 4 5 6 7 8 9 10 11 12 13 14 15 16 17 18 19 20 21 22 23 24 25 26 27 28 29 30 31 32
000
ASUS44 KLZK 281205
RWRLZK

WEATHER ROUNDUP FOR ARKANSAS
NATIONAL WEATHER SERVICE LITTLE ROCK AR
700 AM CDT TUE MAR 28 2017

NOTE: "FAIR" INDICATES FEW OR NO CLOUDS BELOW 12,000 FEET WITH NO
SIGNIFICANT WEATHER AND/OR OBSTRUCTIONS TO VISIBILITY.

ARZ001-003-010-029-281300-
NORTHWEST ARKANSAS

CITY           SKY/WX    TMP DP  RH WIND       PRES   REMARKS
FAYETTEVILLE   MOCLDY    50  48  93 NE5       29.99R
6HR MIN TEMP:  49; 6HR MAX TEMP:  52;

FORT SMITH     CLEAR     46  44  93 CALM      29.98R
6HR MIN TEMP:  45; 6HR MAX TEMP:  50;

HARRISON       CLOUDY    51  50  96 VRB3      30.00S
6HR MIN TEMP:  51; 6HR MAX TEMP:  53;

BENTONVILLE    CLOUDY    52  46  82 E5        30.00R
6HR MIN TEMP:  52; 6HR MAX TEMP:  52;

ROGERS         CLOUDY    51  48  89 E6        30.01R
6HR MIN TEMP:  51; 6HR MAX TEMP:  51;

SILOAM SPGS    CLOUDY    52  45  76 E5        29.99S
6HR MIN TEMP:  52; 6HR MAX TEMP:  52;

HIGHFILL       CLOUDY    52  49  89 NE6       29.99R
6HR MIN TEMP:  52; 6HR MAX TEMP:  52;

SPRINGDALE     CLOUDY    52  48  87 NE3       30.01R
$$

ARZ004-005-016-281300-
NORTH CENTRAL ARKANSAS

CITY           SKY/WX    TMP DP  RH WIND       PRES   REMARKS
BATESVILLE     CLOUDY    55  50  82 CALM      30.01R
6HR MIN TEMP:  54; 6HR MAX TEMP:  57;

FLIPPIN        CLOUDY    54  48  82 CALM      29.99R
6HR MIN TEMP:  54; 6HR MAX TEMP:  55;

MTN HOME       CLOUDY    53  50  89 E3        30.00R
6HR MIN TEMP:  52; 6HR MAX TEMP:  53;

$$

ARZ040-041-281300-
WEST CENTRAL ARKANSAS

CITY           SKY/WX    TMP DP  RH WIND       PRES   REMARKS
MENA           CLOUDY    50  48  93 CALM      29.98R VSB 1
MOUNT IDA      MOCLDY    49  48  97 CALM      29.96R FOG
6HR MIN TEMP:  48; 6HR MAX TEMP:  53;

$$

ARZ009-017-025-026-028-281300-
NORTHEAST ARKANSAS

CITY           SKY/WX    TMP DP  RH WIND       PRES   REMARKS
CORNING        CLOUDY    55  54  94 N7        30.02R
JONESBORO      PTCLDY    55  53  93 N3        30.00R
6HR MIN TEMP:  54; 6HR MAX TEMP:  59;

NEWPORT        MOCLDY    55  54  94 MISG      30.00R
WALNUT RIDGE   MOCLDY    54  48  82 N7        30.01R
6HR MIN TEMP:  54; 6HR MAX TEMP:  55;

BLYTHEVILLE    MOCLDY    54  53  97 NE8       30.00R
6HR MIN TEMP:  52; 6HR MAX TEMP:  57;

$$

ARZ022-023-033-042-044-281300-
CENTRAL ARKANSAS

CITY           SKY/WX    TMP DP  RH WIND       PRES   REMARKS
LITTLE ROCK    PTCLDY    53  52  96 N8        29.98R
6HR MIN TEMP:  53; 6HR MAX TEMP:  58;

N LITTLE ROCK    N/A     53  51  91 N6        29.98R
6HR MIN TEMP:  53; 6HR MAX TEMP:  58;

JACKSONVILLE   CLEAR     51  51  99 CALM      29.98R
6HR MIN TEMP:  51; 6HR MAX TEMP:  59;

CONWAY           N/A     50  50 100 CALM      29.98R FOG
SEARCY         CLOUDY    55  53  93 N8        30.01R
6HR MIN TEMP:  54; 6HR MAX TEMP:  61;

HOT SPRINGS    PTCLDY    52  51  97 CALM      29.98R
6HR MIN TEMP:  51; 6HR MAX TEMP:  57;

RUSSELLVILLE   CLEAR     49  48  97 CALM      29.99R FOG
6HR MIN TEMP:  49; 6HR MAX TEMP:  56;

CLINTON        CLOUDY    50  50 100 CALM      30.00R
$$

ARZ036-281300-
EAST ARKANSAS

CITY           SKY/WX    TMP DP  RH WIND       PRES   REMARKS
WEST MEMPHIS   CLOUDY    58  58 100 NE6       29.97R FOG
6HR MIN TEMP:  57; 6HR MAX TEMP:  60;

$$

ARZ050-053-066-070-073-281300-
SOUTHWEST ARKANSAS

CITY           SKY/WX    TMP DP  RH WIND       PRES   REMARKS
ARKADELPHIA    CLOUDY    57  54  89 NE3       29.97R
6HR MIN TEMP:  56; 6HR MAX TEMP:  61;

CAMDEN         MOCLDY    57  54  88 CALM      29.96R
TEXARKANA      CLOUDY    59  55  87 E6        29.94R
6HR MIN TEMP:  58; 6HR MAX TEMP:  61;

EL DORADO      CLOUDY    61  56  83 NE5       29.95R
6HR MIN TEMP:  60; 6HR MAX TEMP:  65;

DE QUEEN       MOCLDY    55  54  96 NE3       29.94R
6HR MIN TEMP:  51; 6HR MAX TEMP:  56;

$$

ARZ056-057-069-281300-
SOUTHEAST ARKANSAS

CITY           SKY/WX    TMP DP  RH WIND       PRES   REMARKS
PINE BLUFF     PTCLDY    57  54  89 N7        29.97R
6HR MIN TEMP:  57; 6HR MAX TEMP:  63;

STUTTGART      PTCLDY    57  46  67 N8        29.98R
6HR MIN TEMP:  57; 6HR MAX TEMP:  61;

MONTICELLO     CLEAR     59  55  87 CALM      29.95R
6HR MIN TEMP:  59; 6HR MAX TEMP:  66;


$$






USA.gov is the U.S. government's official web portal to all federal, state and local government web resources and services.